Other Public Products
Issued by NWS Grand Forks, ND

Home | Current Version | Previous Version | Graphics & Text | Print | Product List | Glossary On
Versions: 1 2 3 4 5 6 7 8 9 10 11 12 13 14 15 16 17 18 19 20 21 22 23 24 25 26 27 28 29 30 31 32 33 34 35 36 37 38 39 40 41 42 43 44 45 46 47 48 49 50
000
FPUS83 KFGF 290510
OPUFGF
PRAIRIE TO PINES WEATHER ROUNDUP
NATIONAL WEATHER SERVICE EASTERN NORTH DAKOTA/GRAND FORKS ND
1200 AM CDT WED JUL 29 2015

 **SATELLITE DATA USED TO AUGMENT SKY COVER AT AUTOMATED STATIONS**
 *****  WEATHER ACROSS EASTERN NORTH DAKOTA  *****

CITY           SKY/WX    TMP DP  RH WIND       PRES   REMARKS
GRAND FORKS    CLOUDY    64  53  67 SW26G40   29.56S
GRAND FORKS AF CLOUDY    64  53  69 W25G37    29.55S
GRAND CITY NWS   N/A     63 N/A N/A W32         N/A
BUXTON         NOT AVBL
DEVILS LAKE    CLOUDY    61  52  72 W39G53    29.54R
FARGO          FAIR      67  47  48 SW21G33   29.72F
WAHPETON ARPT  CLEAR     64  46  52 SW14      29.84S
$$

 *****  WEATHER ACROSS CENTRAL AND WESTERN NORTH DAKOTA  *****

CITY           SKY/WX    TMP DP  RH WIND       PRES   REMARKS
JAMESTOWN      CLOUDY    63  47  55 W35G49    29.75S
BISMARCK       PTCLDY    62  49  62 W25G36    29.89F
MINOT          LGT RAIN  61  49  64 W37G51    29.70R
MINOT AFB      CLOUDY    61  54  77 W30G47    29.67R
GARRISON         N/A     60  50  69 W28G41    29.81R
WILLISTON      CLOUDY    59  51  75 W15       29.90R
DICKINSON      PTCLDY    50  47  89 W7        29.96S
HETTINGER      CLEAR     56  42  59 W14       30.04R
$$

 *****  OTHER OBSERVATIONS NORTHEAST NORTH DAKOTA  *****

CITY           SKY/WX    TMP DP  RH WIND       PRES   REMARKS
WALHALLA       FAIR      64  63  94 MISG      29.37F
LANGDON        CLOUDY    59  59 100 W25G40    29.44R
CAVALIER       MOCLDY    63  57  82 W20G28    29.40F
GRAFTON        CLOUDY    64  57  77 SW23G31   29.48F
CANDO          NOT AVBL
FORT TOTTEN      N/A     60  54  79 W16       29.95
ROLLA          FAIR      57  57 100 W25G37    29.48R
RUGBY          NOT AVBL
 ***** THE ABOVE OBSERVATIONS ARE NON NWS ARE NOT QUALITY
        CONTROLLED AND MAY MIS-REPORT RAIN FOR SNOW...
$$

 *****  OTHER OBSERVATIONS SOUTHEAST NORTH DAKOTA *****

CITY           SKY/WX    TMP DP  RH WIND       PRES   REMARKS
COOPERSTOWN    NOT AVBL
VALLEY CITY    NOT AVBL
OAKES            N/A     64  50  59 W21G29    29.86F
GWINNER        FAIR      66  48  52 W18G29    29.84S
SHEYENNE NWR     N/A     67  47  49 W20       29.95
BUFFALO        NOT AVBL
WYNDMERE         N/A     66  50  55 SW13        N/A
 ***** THE ABOVE OBSERVATIONS ARE NON NWS ARE NOT QUALITY
       CONTROLLED AND MAY MIS-REPORT RAIN FOR SNOW...
$$

  *****  WEATHER ACROSS NORTHERN MINNESOTA  *****

CITY           SKY/WX    TMP DP  RH WIND       PRES   REMARKS
FLAG ISLAND    MOCLDY    68  54  60 SW24G38   29.47F
WARROAD        CLOUDY    66  54  63 S16G24    29.50F
ROSEAU         CLOUDY    66  54  63 S21G28    29.48F
HALLOCK        CLOUDY    64  55  72 SW22G31   29.44F
THF RVR FALLS  CLOUDY    64  48  55 SW25G33   29.58F
HALSTAD        NOT AVBL
FOSSTON        CLOUDY    63  50  63 SW26G35   29.68F
BAUDETTE       PTCLDY    66  50  56 S18G28    29.56F
WASKISH        CLEAR     66  52  59 S15G26    29.64F
CROOKSTON      CLOUDY    64  52  63 W31G44    29.61S
$$
  *****  WEATHER ACROSS CENTRAL AND WEST MINNESOTA  *****

CITY           SKY/WX    TMP DP  RH WIND       PRES   REMARKS
BEMIDJI        CLEAR     66  48  52 SW20G32   29.71F
PARK RAPIDS    CLEAR     68  48  48 SW21G30   29.79S
WADENA         CLEAR     66  50  55 SW15G25   29.84S
DETROIT LAKES  CLEAR     66  46  48 W17G36    29.79F
MOORHEAD       CLEAR     66  48  52 SW17G25   29.76S
FERGUS FALLS   CLEAR     64  52  63 SW12      29.84S
ELBOW LAKE     FAIR      63  52  66 SW10      29.89R
MORRIS MN      CLEAR     66  54  63 SW10      29.93R
STAPLES        CLEAR     66  48  52 SW10G16   29.86S
WHEATON        CLEAR     64  48  55 SW8       29.90F
$$
  *****  WEATHER ELSEWHERE ACROSS MINNESOTA  *****

CITY           SKY/WX    TMP DP  RH WIND       PRES   REMARKS
DULUTH         CLEAR     69  57  65 W12       29.82R
INTRNTL FALLS  CLEAR     67  53  61 SW12G24   29.63F
ELY            CLEAR     70  55  60 SW10      29.76S
CLOQUET        CLEAR     70  55  60 SW10      29.83S
BRAINERD       CLEAR     69  51  52 SW18G25   29.85S
HIBBING        CLEAR     67  56  67 S6        29.77S
ALEXANDRIA     CLEAR     68  51  54 SW14      29.93R
SAINT CLOUD    FAIR      69  54  58 W13       29.90S
MINNEAPOLIS    MOCLDY    73  59  61 SW7       29.92R
$$

  *****  WEATHER ACROSS SOUTH DAKOTA  *****

CITY           SKY/WX    TMP DP  RH WIND       PRES   REMARKS
SIOUX FALLS    CLEAR     62  58  86 W3        30.05R
BROOKINGS      CLEAR     64  54  68 W6        30.05R
WATERTOWN      CLEAR     64  52  64 SW9       29.98R
HURON          CLEAR     63  52  67 W7        30.01R
SISSETON         N/A     68  47  46 W13       29.89S
ABERDEEN       CLEAR     61  51  70 SW12      29.93S
MITCHELL       CLEAR     64  54  69 W7        30.05R
PIERRE         CLEAR     66  47  50 W8        30.04R
MOBRIDGE       CLEAR     65  48  54 W14       29.95S
RAPID CITY     CLEAR     57  44  62 NW8       30.17R
$$

  *****  SOME WEATHER IN NEARBY STATES *****

CITY           SKY/WX    TMP DP  RH WIND       PRES   REMARKS
GLASGOW MT     PTCLDY    58  50  75 SW8       30.00R
GREAT FALLS MT CLEAR     56  38  50 W9        30.17R
CHEYENNE WY    CLOUDY    65  31  28 E3        30.34R
SCOTTSBLUFF NE CLEAR     58  44  60 NE9       30.22R
OMAHA NE       MOCLDY    73  64  73 N7        30.03R
DES MOINES IA  TSTM      72  69  90 NW3       29.97F
DAVENPORT IA   CLOUDY    76  74  93 NW5       29.96R
CHICAGO IL     MOCLDY    77  73  87 S6        29.94R
EAU CLAIRE WI  MOCLDY    77  68  73 W18G31    29.90R
LA CROSSE WI   CLOUDY    77  71  82 S6        29.91S
$$

  *****  SOME NATIONAL WEATHER *****

CITY           SKY/WX    TMP DP  RH WIND       PRES   REMARKS
LA GUARDIA NY  CLEAR     82  70  66 SW9       29.97R
RALEIGH NC     MOCLDY    79  73  82 SE3       30.02R
ATLANTA GA     MOCLDY    79  72  79 W5        30.02S
NEW ORLEANS LA PTCLDY    83  73  72 SW9       30.01R
OKLAHOMA CITY  PTCLDY    74  68  81 S6        29.98R
ALBUQUERQUE NM CLOUDY    75  54  47 E20       30.22R
SALT LAKE CITY CLEAR     64  34  32 SW3       30.24R
LOS ANGELES CA PTCLDY    68  64  87 W8        29.90R
BOISE ID       CLEAR     68  38  33 CALM      30.20R
SEATTLE WA     PTCLDY    69  50  50 NW7       30.21R
$$

*** WEATHER ACROSS MANITOBA...SASKATCHEWAN AND ONTARIO ***
                ***ONTARIO***

CITY           SKY/WX    TMP DP  RH WIND       PRES   REMARKS
GERALDTON      CLEAR     68  59  73 S8        29.76F
THUNDER BAY    MOCLDY    66  64  94 VRB2      29.72F
SIOUX LOOKOUT  NOT AVBL
TORONTO        PTCLDY    77  64  65 S3        30.00R
BIG TROUT LK   LGT RAIN  70  68  94 S12       29.49F
PICKLE LAKE    NOT AVBL
DRYDEN         CLEAR     68  55  64 S14G22    29.56F
KENORA         MOCLDY    68  52  56 SW28G40   29.48F
$$
                *** MANITOBA***

CITY           SKY/WX    TMP DP  RH WIND       PRES   REMARKS
BRANDON        LGT RAIN  61  59  94 W22G36    29.38R
DAUPHIN        MOCLDY    63  61  94 W9        29.31R
ISLAND LAKE    MOCLDY    68  64  88 SE9       29.34S
PILOT MOUND      N/A     61  59  94 W15G25      N/A
THE PAS        CLOUDY    61  57  88 N22G31    29.45R
THOMPSON       TSTM      59  57  94 NE16G31   29.38F
WINNIPEG       LGT RAIN  59  57  94 S16G23    29.29F
LYNN LAKE        N/A    N/A N/A N/A MISG        N/A
CHURCHILL      LGT RAIN  50  50 100 NE8       29.67S
GILLAM         LGT RAIN  64  63  94 NE14G24   29.41F
$$
                ***SASKATCHEWAN***

CITY           SKY/WX    TMP DP  RH WIND       PRES   REMARKS
ESTEVAN        LGT RAIN  59  54  82 W28G39    29.76R
KINDERSLEY     PTCLDY    55  48  76 W8        29.95R
LLOYDMINSTER   CLEAR     59  50  72 W12       29.91S
PRINCE ALBERT  MOCLDY    57  55  94 W8        29.73R
REGINA         CLOUDY    59  54  82 NW18G29   29.79R



USA.gov is the U.S. government's official web portal to all federal, state and local government web resources and services.